[[{"header":{"parameterUnit":"m.s-1","parameterCategory":1,"la1":30.2991,"la2":30.254,"lo1":-89.0895,"lo2":-89.0444,"dy":0.0017,"dx":0.0017,"nx":28,"ny":28,"refTime":"2024-09-25T21:00:00:Z","depth":0,"parameterNumber":2,"parameterNumberName":"U-component_of_WINDS"},"data":[0,0,0,0,0,0,0,0,0,0,0,0,0,0,0,0,0,0,0,0,0,0,0,0,0,0,0,0,0,0,0,0,0,0,0,0,0,0,0,0,0,0,0,0,0,0,0,0,0,0,0,0,0,0,0,0,0,0,0.8771,0.877,0,0.8689,0.8688,0.8687,0.8674,0.8675,0.8675,0.8676,0.8586,0.8583,0.858,0,0,0,0,0,0,0,0,0,0,0,0,0,0.8912,0.8909,0.8771,0.877,0.8769,0.8689,0.8688,0.8687,0.8674,0.8675,0.8676,0.8676,0.8587,0.8584,0.858,0,0,0,0,0,0,0,0,0,0,0,0,0,0.8842,0.8909,0.8771,0.8753,0.8751,0.8689,0.8688,0.8687,0.8674,0.8675,0.8676,0.8677,0.8588,0.8584,0.8579,0.8529,0,0,0.8565,0.8563,0,0,0,0,0,0,0,0,0.8846,0.8837,0.8757,0.8754,0.8751,0.8693,0.8705,0.8633,0.8673,0.8703,0.8676,0.8677,0.862,0.8613,0.8595,0.8525,0.8521,0.8565,0.8562,0.856,0.8559,0,0,0,0,0,0,0,0.8851,0.8841,0.8738,0.8755,0.8752,0.8748,0.8739,0.8691,0.8656,0.87,0.8699,0.869,0.8619,0.86,0.8593,0.8519,0.8565,0.8561,0.8558,0.8556,0.8404,0.8403,0,0,0,0,0,0,0.886,0.8845,0.8741,0.8736,0.8803,0.8744,0.8734,0.871,0.8657,0.865,0.8689,0.869,0.8607,0.8598,0.859,0.8527,0.856,0.8556,0.8553,0.8405,0.8404,0.8402,0,0,0,0,0,0,0.8863,0.8851,0.8744,0.879,0.8776,0.8741,0.8714,0.8708,0.8689,0.8648,0.8641,0.8676,0.8608,0.8596,0.8545,0.8523,0.8554,0.8549,0.8407,0.8405,0.8403,0.8401,0,0,0,0,0,0,0.8867,0.8852,0.8833,0.879,0.8774,0.8701,0.8712,0.8706,0.8682,0.8682,0.8634,0.8627,0.8608,0.8552,0.854,0.8518,0.8546,0.8408,0.8406,0.8404,0.8402,0.8399,0.8396,0,0,0,0,0,0.8872,0.8834,0.8832,0.882,0.875,0.87,0.8691,0.8671,0.868,0.866,0.8635,0.8629,0.8529,0.8547,0.8533,0.8509,0.841,0.8407,0.8404,0.8404,0.84,0.8396,0,0,0,0,0,0,0.8872,0.8828,0.8825,0.8772,0.8741,0.8698,0.8672,0.8667,0.863,0.8631,0.8606,0.8596,0.8545,0.8522,0.8543,0.8458,0.847,0.8464,0.8474,0.847,0.8467,0.8472,0.8542,0,0,0,0,0,0.8867,0.8832,0.8795,0.8751,0.8736,0.8707,0.8685,0.8673,0.8638,0.8624,0.8594,0.8559,0.852,0.8494,0.8456,0.8401,0.8389,0.8378,0.8375,0.8372,0.8366,0.8335,0.833,0.8393,0.8393,0.8393,0,0,0.8854,0.8825,0.8804,0.8751,0.8725,0.8688,0.8696,0.8656,0.8628,0.8617,0.8566,0.8544,0.8504,0.845,0.8425,0.843,0.8347,0.8368,0.8367,0.8362,0.8332,0.8326,0.8321,0.8391,0.8392,0.8392,0,0,0.881,0.8786,0.8748,0.8723,0.8685,0.8666,0.8658,0.8617,0.8602,0.8552,0.8544,0.851,0.8443,0.8414,0.8391,0.8342,0.8335,0.833,0.8312,0.8282,0.8277,0.8272,0.8253,0.8247,0.8325,0.8325,0.8325,0,0.8798,0.8744,0.8728,0.869,0.8666,0.8659,0.8619,0.8595,0.8545,0.8528,0.8535,0.8452,0.8424,0.8364,0.8353,0.8335,0.8322,0.8333,0.8279,0.8275,0.827,0.8251,0.8245,0.8325,0.8325,0.8325,0.8325,0,0.873,0.8693,0.8667,0.8622,0.8596,0.8557,0.8534,0.851,0.8501,0.8482,0.8432,0.8399,0.8354,0.834,0.8329,0.8278,0.8282,0.8285,0.8295,0.8264,0.8246,0.8239,0.8324,0.8324,0.8325,0.8325,0,0,0.8679,0.8631,0.8621,0.8601,0.856,0.853,0.8492,0.8451,0.843,0.8397,0.8363,0.8308,0.8311,0.8285,0.8272,0.8247,0.8209,0.8252,0.8251,0.8243,0.8149,0.8145,0.8138,0.8206,0.8205,0.8203,0.8152,0,0.863,0.8562,0.8549,0.8489,0.8455,0.8449,0.8415,0.8386,0.8368,0.8335,0.8315,0.8276,0.8284,0.8268,0.8243,0.8219,0.8189,0.8223,0.8171,0.817,0.8178,0.8128,0.8124,0.8076,0.8145,0.8144,0.8143,0,0.8561,0.853,0.8468,0.8435,0.8419,0.8389,0.8351,0.8321,0.8288,0.8277,0.825,0.8241,0.82,0.8216,0.8158,0.8181,0.816,0.8145,0.8143,0.8134,0.8152,0.8116,0.8061,0.8053,0.8132,0.8133,0.8134,0,0.8529,0.8472,0.8427,0.8411,0.837,0.835,0.8331,0.83,0.8277,0.8244,0.8229,0.8191,0.8169,0.8139,0.812,0.8133,0.8063,0.8077,0.805,0.8051,0.8032,0.8033,0.797,0.8024,0.8024,0.8024,0.8024,0,0.8473,0.8434,0.8412,0.8384,0.8342,0.8327,0.8285,0.8267,0.824,0.8207,0.8201,0.817,0.8148,0.8115,0.81,0.8053,0.8044,0.8032,0.8028,0.8031,0.8032,0.8014,0.8015,0.8022,0.8023,0.8023,0.8023,0,0.8427,0.8411,0.8362,0.833,0.8321,0.829,0.8262,0.8234,0.8219,0.8178,0.8168,0.8142,0.8102,0.8082,0.8031,0.8021,0.7968,0.7968,0.798,0.7977,0.7951,0.7953,0.7871,0.7859,0.7924,0.7924,0.7923,0,0.839,0.8361,0.8327,0.8307,0.8289,0.8256,0.8233,0.8219,0.8195,0.8158,0.8135,0.8096,0.8063,0.8,0.7975,0.7937,0.7933,0.7908,0.7927,0.7931,0.793,0.7931,0.7927,0.7903,0.7902,0.7902,0.7901,0,0.8326,0.8321,0.829,0.8257,0.8231,0.8203,0.8176,0.8159,0.8141,0.8114,0.8076,0.8051,0.8002,0.7962,0.7923,0.7903,0.7898,0.7897,0.7888,0.7888,0.7896,0.789,0.7967,0.7897,0.7898,0.7898,0.7898,0.7898,0.8282,0.8256,0.8229,0.8195,0.8175,0.815,0.8123,0.8106,0.8074,0.8034,0.8028,0.7986,0.7956,0.7903,0.7883,0.7849,0.7854,0.7842,0.7838,0.7834,0.7832,0.7905,0.7842,0.7842,0.7842,0.7842,0.7842,0,0.8216,0.82,0.8169,0.8133,0.8106,0.811,0.808,0.8057,0.8021,0.7995,0.7965,0.792,0.7883,0.7858,0.7819,0.7797,0.7794,0.7787,0.7787,0.7782,0.7831,0.7841,0.7791,0.7791,0.7791,0.7791,0.7791,0.7791,0.8178,0.8135,0.8127,0.8073,0.8057,0.8018,0.8001,0.7978,0.7957,0.7909,0.7879,0.7865,0.7838,0.7799,0.7764,0.7758,0.7743,0.7736,0.7729,0.7773,0.7779,0.7784,0.7793,0.7733,0.7733,0.7682,0.7682,0.7682]},{"header":{"parameterUnit":"m.s-1","parameterCategory":1,"la1":30.2991,"la2":30.254,"lo1":-89.0895,"lo2":-89.0444,"dy":0.0017,"dx":0.0017,"nx":28,"ny":28,"refTime":"2024-09-25T21:00:00:Z","depth":0,"parameterNumber":3,"parameterNumberName":"V-component_of_WINDS"},"data":[0,0,0,0,0,0,0,0,0,0,0,0,0,0,0,0,0,0,0,0,0,0,0,0,0,0,0,0,0,0,0,0,0,0,0,0,0,0,0,0,0,0,0,0,0,0,0,0,0,0,0,0,0,0,0,0,0,0,1.6165,1.6165,0,1.6242,1.6243,1.6244,1.6254,1.6254,1.6253,1.6252,1.6325,1.6328,1.633,0,0,0,0,0,0,0,0,0,0,0,0,0,1.6014,1.6017,1.6165,1.6166,1.6167,1.6242,1.6243,1.6244,1.6255,1.6254,1.6253,1.6252,1.6324,1.6327,1.633,0,0,0,0,0,0,0,0,0,0,0,0,0,1.6084,1.6018,1.6164,1.6181,1.6183,1.6242,1.6243,1.6245,1.6255,1.6254,1.6253,1.6252,1.6323,1.6327,1.6331,1.6377,0,0,1.6343,1.6345,0,0,0,0,0,0,0,0,1.608,1.609,1.6177,1.618,1.6182,1.6238,1.6217,1.6289,1.6255,1.6227,1.6252,1.6251,1.6296,1.6303,1.6319,1.638,1.6383,1.6343,1.6346,1.6347,1.6348,0,0,0,0,0,0,0,1.6076,1.6087,1.6195,1.6179,1.6182,1.6181,1.619,1.6231,1.6267,1.623,1.6231,1.624,1.6298,1.6315,1.6321,1.6384,1.6343,1.6347,1.6349,1.6351,1.648,1.6481,0,0,0,0,0,0,1.6069,1.6083,1.6193,1.6197,1.6128,1.6184,1.6194,1.6221,1.6266,1.6272,1.6241,1.624,1.6309,1.6316,1.6324,1.6376,1.6347,1.6351,1.6353,1.6479,1.648,1.6481,0,0,0,0,0,0,1.6066,1.6079,1.619,1.614,1.6154,1.6188,1.6218,1.6223,1.6241,1.6275,1.6281,1.6253,1.6309,1.6318,1.6362,1.6379,1.6353,1.6356,1.6478,1.6479,1.6481,1.6485,0,0,0,0,0,0,1.6061,1.6078,1.6098,1.6141,1.6157,1.623,1.6219,1.6225,1.6249,1.6249,1.6288,1.6293,1.6309,1.6357,1.6366,1.6384,1.6359,1.6476,1.6478,1.648,1.6483,1.6486,1.6489,0,0,0,0,0,1.6056,1.6096,1.6099,1.6112,1.6184,1.6231,1.624,1.6259,1.625,1.6269,1.6289,1.6292,1.6376,1.6361,1.6372,1.6391,1.6475,1.6478,1.648,1.6482,1.6486,1.6489,0,0,0,0,0,0,1.6053,1.6102,1.6106,1.6162,1.6192,1.6233,1.6258,1.6263,1.6295,1.6294,1.6313,1.6322,1.6364,1.6382,1.6365,1.6435,1.6424,1.6429,1.6422,1.6426,1.6428,1.6422,1.6363,0,0,0,0,0,1.606,1.6097,1.6136,1.6181,1.6196,1.6224,1.6246,1.6257,1.6289,1.6301,1.6326,1.6354,1.6386,1.6407,1.6439,1.6486,1.6492,1.6504,1.6507,1.6509,1.6512,1.6533,1.6538,1.6489,1.6489,1.6489,0,0,1.6072,1.6103,1.6126,1.6181,1.6207,1.6241,1.6235,1.6273,1.6298,1.6306,1.635,1.6368,1.64,1.6445,1.6465,1.6461,1.6527,1.6512,1.6513,1.6516,1.6536,1.6541,1.6545,1.6491,1.6491,1.6491,0,0,1.6112,1.6142,1.618,1.6205,1.6243,1.626,1.6269,1.6308,1.6321,1.6365,1.637,1.6398,1.6455,1.6476,1.6494,1.6537,1.6539,1.6546,1.6561,1.6581,1.6585,1.6588,1.66,1.6604,1.655,1.655,1.655,0,1.6123,1.6178,1.6198,1.6235,1.6257,1.6267,1.6303,1.6325,1.6371,1.6384,1.6379,1.6447,1.647,1.6517,1.6527,1.6543,1.655,1.6542,1.6583,1.6587,1.659,1.6601,1.6606,1.655,1.655,1.655,1.655,0,1.6186,1.6223,1.6249,1.6294,1.6318,1.6355,1.6377,1.6399,1.6407,1.6423,1.6464,1.6492,1.6527,1.6539,1.6548,1.6586,1.6582,1.658,1.6569,1.6595,1.6606,1.661,1.6551,1.6551,1.6551,1.6551,0,0,1.6229,1.6281,1.629,1.6308,1.6349,1.6376,1.641,1.6446,1.6463,1.6493,1.6519,1.6564,1.6561,1.6582,1.6592,1.661,1.6637,1.6605,1.6606,1.6607,1.6676,1.6676,1.6681,1.6638,1.6639,1.664,1.6673,0,1.6271,1.6335,1.6352,1.6405,1.6436,1.6444,1.6473,1.6499,1.6514,1.654,1.6556,1.6587,1.6583,1.6594,1.6613,1.663,1.665,1.6628,1.666,1.6661,1.665,1.6688,1.6689,1.6718,1.6677,1.6678,1.6679,0,1.633,1.6361,1.6417,1.6449,1.6462,1.6489,1.652,1.6547,1.6574,1.6583,1.6605,1.6612,1.6643,1.6631,1.6673,1.6657,1.667,1.668,1.6681,1.6684,1.667,1.6689,1.6729,1.6732,1.6686,1.6685,1.6685,0,1.635,1.6406,1.6446,1.6461,1.6501,1.6518,1.6535,1.6561,1.658,1.6606,1.6618,1.6647,1.6663,1.6684,1.6697,1.6688,1.6736,1.6726,1.6741,1.6741,1.675,1.6749,1.6791,1.6762,1.6762,1.6762,1.6762,0,1.6394,1.6427,1.6455,1.6479,1.6514,1.6532,1.6565,1.6581,1.6604,1.6629,1.6637,1.6659,1.6676,1.67,1.671,1.674,1.6748,1.6754,1.6756,1.6752,1.6751,1.676,1.6758,1.6763,1.6763,1.6763,1.6763,0,1.6424,1.6444,1.6487,1.652,1.6528,1.6553,1.6579,1.6601,1.6615,1.6646,1.6654,1.6676,1.6703,1.6719,1.6754,1.676,1.6793,1.6795,1.6784,1.6785,1.6798,1.6796,1.6846,1.6852,1.6821,1.6821,1.6822,0,1.645,1.6475,1.651,1.6528,1.6545,1.6573,1.6592,1.6608,1.6627,1.6658,1.6674,1.6703,1.6726,1.6769,1.6786,1.6812,1.6813,1.6828,1.6817,1.6811,1.681,1.6807,1.6808,1.683,1.683,1.6831,1.6831,0,1.6492,1.65,1.6528,1.6558,1.658,1.6605,1.6629,1.6642,1.6661,1.6681,1.671,1.6728,1.6763,1.6789,1.6816,1.6829,1.6832,1.6834,1.6839,1.6835,1.6826,1.6828,1.6787,1.6833,1.6833,1.6833,1.6833,1.6832,1.6518,1.6539,1.6566,1.6596,1.6615,1.6637,1.6657,1.6674,1.6699,1.6729,1.6737,1.6766,1.6788,1.6824,1.6838,1.6858,1.6855,1.6863,1.6864,1.6865,1.6864,1.6824,1.6863,1.6863,1.6863,1.6863,1.6863,0,1.6558,1.6575,1.6602,1.6635,1.6657,1.6659,1.6685,1.6702,1.6728,1.675,1.6772,1.6803,1.6828,1.6846,1.6871,1.6884,1.6885,1.6889,1.6888,1.689,1.6867,1.6859,1.6887,1.6887,1.6887,1.6887,1.6887,1.6887,1.6581,1.6616,1.6626,1.6669,1.6685,1.6715,1.6729,1.6747,1.6763,1.6798,1.6819,1.6831,1.685,1.6876,1.6897,1.6902,1.6909,1.6913,1.6917,1.6895,1.6892,1.6889,1.6882,1.6915,1.6915,1.6938,1.6938,1.6938]}]]